Yvonne K. — PBLX — position and weather

sailwx.info

Track history (hours):
 
Tides and Currents Weather Stations Pressure Air Temp Water Temp Dewpoint Dewpoint Depression Visibility Wind Speed Wind Dir Waves Ship Positions

Yvonne K.

Last reported at 2014-Jul-26 14:31 UTC. Time now 2014-Jul-26 19:18 UTC.
Position N 36°08' W 007°15'.

Length 90 m; draft 5.1 m.

Type: Cargo ship. MMSI: 244948000.

Date/timePositionNaut miles runAvg speedWind from/ knotsBaromVisibWave heightAir tempDewpointWater temp
2014-Jul-26 14:31N 36°08' W 007°15'6510.7
2014-Jul-26 08:26N 36°25' W 008°33'1310.2
2014-Jul-26 07:09N 36°28' W 008°48'91 9.0
2014-Jul-25 21:04N 37°45' W 009°49'17 9.9
2014-Jul-25 19:23N 38°01' W 009°54'9 9.9
2014-Jul-25 18:28N 38°10' W 009°56'  
2014-Jul-21 15:33N 50°37' E 000°23'9 8.8
2014-Jul-21 14:34N 50°40' E 000°36'10 9.9
2014-Jul-21 13:33N 50°45' E 000°48'1110.8
2014-Jul-21 12:33N 50°51' E 001°02'2110.6
2014-Jul-21 10:34N 51°05' E 001°28'9 9.0
2014-Jul-21 09:34N 51°11' E 001°39'8 8.2
2014-Jul-21 08:34N 51°17' E 001°48'8 8.4
2014-Jul-21 07:33N 51°24' E 001°56'9 8.9
2014-Jul-21 06:34N 51°30' E 002°05'10 9.6
2014-Jul-21 05:33N 51°37' E 002°15'1310.6
2014-Jul-21 04:18N 51°47' E 002°30'1910.8
2014-Jul-21 02:33N 52°01' E 002°51'1310.1
2014-Jul-21 01:17N 52°02' E 003°12'7 9.9
2014-Jul-21 00:33N 52°02' E 003°24'10 9.6
2014-Jul-20 23:29N 52°03' E 003°40'8 9.1
2014-Jul-20 22:33N 52°03' E 003°54'9 9.4
2014-Jul-20 21:33N 51°58' E 004°07'0 0.3
2014-Jul-20 20:32N 51°58' E 004°07'0 0.0
2014-Jul-20 19:05N 51°58' E 004°07'0 0.0
2014-Jul-20 18:20N 51°58' E 004°07'0 0.0
2014-Jul-20 17:14N 51°58' E 004°07'0 0.0
2014-Jul-20 15:11N 51°58' E 004°07'0 0.0
2014-Jul-20 14:29N 51°58' E 004°07'0 0.0
2014-Jul-20 13:14N 51°58' E 004°07'0 0.0
2014-Jul-20 11:08N 51°58' E 004°07'0 0.0
2014-Jul-20 09:05N 51°58' E 004°07'0 0.0
2014-Jul-20 06:26N 51°58' E 004°07'0 0.0
2014-Jul-20 05:32N 51°58' E 004°07'0 0.0
2014-Jul-20 04:14N 51°58' E 004°07'0 0.0
2014-Jul-20 03:23N 51°58' E 004°07'0 0.0
2014-Jul-20 02:05N 51°58' E 004°07'0 0.0
2014-Jul-20 01:23N 51°58' E 004°07'0 0.0
2014-Jul-20 00:29N 51°58' E 004°07'0 0.0
2014-Jul-19 20:08N 51°58' E 004°07'0 0.0
2014-Jul-19 19:23N 51°58' E 004°07'0 0.2
2014-Jul-19 18:08N 51°57' E 004°08'0 0.0
2014-Jul-19 17:32N 51°57' E 004°08'0 0.0
2014-Jul-19 15:23N 51°57' E 004°08'0 0.0
2014-Jul-19 14:26N 51°57' E 004°08'0 0.0
2014-Jul-19 13:26N 51°57' E 004°08'0 0.0
2014-Jul-19 12:32N 51°57' E 004°08'0 0.0
2014-Jul-19 11:32N 51°57' E 004°08'0 0.0
2014-Jul-19 09:29N 51°57' E 004°08'0 0.0
2014-Jul-19 07:26N 51°57' E 004°08'0 0.0
2014-Jul-19 06:29N 51°57' E 004°08'0 0.0
2014-Jul-19 05:23N 51°57' E 004°08'0 0.0
2014-Jul-19 04:29N 51°57' E 004°08'0 0.0
2014-Jul-19 03:26N 51°57' E 004°08'0 0.0
2014-Jul-19 02:20N 51°57' E 004°08'0 0.0
2014-Jul-19 01:29N 51°57' E 004°08'0 0.0
2014-Jul-19 00:32N 51°57' E 004°08'0 0.0
2014-Jul-18 23:29N 51°57' E 004°08'0 0.0
2014-Jul-18 22:29N 51°57' E 004°08'0 0.0
2014-Jul-18 21:32N 51°57' E 004°08'0 0.0
2014-Jul-18 20:26N 51°57' E 004°08'0 0.0
2014-Jul-18 19:17N 51°57' E 004°08'0 0.0
2014-Jul-18 18:29N 51°57' E 004°08'0 0.0
2014-Jul-18 17:26N 51°57' E 004°08'0 0.0
2014-Jul-18 16:32N 51°57' E 004°08'0 0.0
2014-Jul-18 15:32N 51°57' E 004°08'0 0.0
2014-Jul-18 14:26N 51°57' E 004°08'0 0.0
2014-Jul-18 13:32N 51°57' E 004°08'0 0.0
2014-Jul-18 12:32N 51°57' E 004°08'0 0.0
2014-Jul-18 11:20N 51°57' E 004°08'0 0.0
2014-Jul-18 10:29N 51°57' E 004°08'0 0.0
2014-Jul-18 09:32N 51°57' E 004°08'0 0.0
2014-Jul-18 08:23N 51°57' E 004°08'0 0.0
2014-Jul-18 07:32N 51°57' E 004°08'0 0.0
2014-Jul-18 06:29N 51°57' E 004°08'0 0.0
2014-Jul-18 05:29N 51°57' E 004°08'0 0.0
2014-Jul-18 04:32N 51°57' E 004°08'0 0.0
2014-Jul-18 03:32N 51°57' E 004°08'0 0.0
2014-Jul-18 02:32N 51°57' E 004°08'0 0.0
2014-Jul-18 01:29N 51°57' E 004°08'0 0.0
2014-Jul-18 00:29N 51°57' E 004°08'0 0.0
2014-Jul-17 23:32N 51°57' E 004°08'0 0.0
2014-Jul-17 22:32N 51°57' E 004°08'0 0.0
2014-Jul-17 21:29N 51°57' E 004°08'0 0.0
2014-Jul-17 20:26N 51°57' E 004°08'0 0.0
2014-Jul-17 19:26N 51°57' E 004°08'0 0.0
2014-Jul-17 18:29N 51°57' E 004°08'0 0.0
2014-Jul-17 17:14N 51°57' E 004°08'0 0.0
2014-Jul-17 16:29N 51°57' E 004°08'0 0.0
2014-Jul-17 15:29N 51°57' E 004°08'0 0.0
2014-Jul-17 14:29N 51°57' E 004°08'0 0.0
2014-Jul-17 13:32N 51°57' E 004°08'0 0.0
2014-Jul-17 12:26N 51°57' E 004°08'0 0.0
2014-Jul-17 11:29N 51°57' E 004°08'0 0.0
2014-Jul-17 10:32N 51°57' E 004°08'0 0.0
2014-Jul-17 09:29N 51°57' E 004°08'0 0.0
2014-Jul-17 08:32N 51°57' E 004°08'0 0.0
2014-Jul-17 07:32N 51°57' E 004°08'0 0.0
2014-Jul-17 06:29N 51°57' E 004°08'0 0.0
2014-Jul-17 05:32N 51°57' E 004°08'0 0.0
2014-Jul-17 04:32N 51°57' E 004°08'0 0.0
2014-Jul-17 03:32N 51°57' E 004°08'0 0.0
2014-Jul-17 02:29N 51°57' E 004°08'0 0.0
2014-Jul-17 01:32N 51°57' E 004°08'0 0.0
2014-Jul-17 00:32N 51°57' E 004°08'0 0.0
2014-Jul-16 23:23N 51°57' E 004°08'0 0.0
2014-Jul-16 22:32N 51°57' E 004°08'0 0.0
2014-Jul-16 21:32N 51°57' E 004°08'0 0.0
2014-Jul-16 20:26N 51°57' E 004°08'0 0.0
2014-Jul-16 19:32N 51°57' E 004°08'0 0.0
2014-Jul-16 18:26N 51°57' E 004°08'0 0.0
2014-Jul-16 17:29N 51°57' E 004°08'0 0.0
2014-Jul-16 16:32N 51°57' E 004°08'0 0.0
2014-Jul-16 15:20N 51°57' E 004°08'0 0.0
2014-Jul-16 14:32N 51°57' E 004°08'  
Track history (hours):
 
Tides and Currents Weather Stations Pressure Air Temp Water Temp Dewpoint Dewpoint Depression Visibility Wind Speed Wind Dir Waves Ship Positions

Yvonne K.

Last reported at 2014-Jul-26 14:31 UTC. Time now 2014-Jul-26 19:18 UTC.
Position N 36°08' W 007°15'.

Length 90 m; draft 5.1 m.

Type: Cargo ship. MMSI: 244948000.

Date/timePositionNaut miles runAvg speedWind from/ knotsBaromVisibWave heightAir tempDewpointWater temp
2014-Jul-26 14:31N 36°08' W 007°15'6510.7
2014-Jul-26 08:26N 36°25' W 008°33'1310.2
2014-Jul-26 07:09N 36°28' W 008°48'91 9.0
2014-Jul-25 21:04N 37°45' W 009°49'17 9.9
2014-Jul-25 19:23N 38°01' W 009°54'9 9.9
2014-Jul-25 18:28N 38°10' W 009°56'  
2014-Jul-21 15:33N 50°37' E 000°23'9 8.8
2014-Jul-21 14:34N 50°40' E 000°36'10 9.9
2014-Jul-21 13:33N 50°45' E 000°48'1110.8
2014-Jul-21 12:33N 50°51' E 001°02'2110.6
2014-Jul-21 10:34N 51°05' E 001°28'9 9.0
2014-Jul-21 09:34N 51°11' E 001°39'8 8.2
2014-Jul-21 08:34N 51°17' E 001°48'8 8.4
2014-Jul-21 07:33N 51°24' E 001°56'9 8.9
2014-Jul-21 06:34N 51°30' E 002°05'10 9.6
2014-Jul-21 05:33N 51°37' E 002°15'1310.6
2014-Jul-21 04:18N 51°47' E 002°30'1910.8
2014-Jul-21 02:33N 52°01' E 002°51'1310.1
2014-Jul-21 01:17N 52°02' E 003°12'7 9.9
2014-Jul-21 00:33N 52°02' E 003°24'10 9.6
2014-Jul-20 23:29N 52°03' E 003°40'8 9.1
2014-Jul-20 22:33N 52°03' E 003°54'9 9.4
2014-Jul-20 21:33N 51°58' E 004°07'0 0.3
2014-Jul-20 20:32N 51°58' E 004°07'0 0.0
2014-Jul-20 19:05N 51°58' E 004°07'0 0.0
2014-Jul-20 18:20N 51°58' E 004°07'0 0.0
2014-Jul-20 17:14N 51°58' E 004°07'0 0.0
2014-Jul-20 15:11N 51°58' E 004°07'0 0.0
2014-Jul-20 14:29N 51°58' E 004°07'0 0.0
2014-Jul-20 13:14N 51°58' E 004°07'0 0.0
2014-Jul-20 11:08N 51°58' E 004°07'0 0.0
2014-Jul-20 09:05N 51°58' E 004°07'0 0.0
2014-Jul-20 06:26N 51°58' E 004°07'0 0.0
2014-Jul-20 05:32N 51°58' E 004°07'0 0.0
2014-Jul-20 04:14N 51°58' E 004°07'0 0.0
2014-Jul-20 03:23N 51°58' E 004°07'0 0.0
2014-Jul-20 02:05N 51°58' E 004°07'0 0.0
2014-Jul-20 01:23N 51°58' E 004°07'0 0.0
2014-Jul-20 00:29N 51°58' E 004°07'0 0.0
2014-Jul-19 20:08N 51°58' E 004°07'0 0.0
2014-Jul-19 19:23N 51°58' E 004°07'0 0.2
2014-Jul-19 18:08N 51°57' E 004°08'0 0.0
2014-Jul-19 17:32N 51°57' E 004°08'0 0.0
2014-Jul-19 15:23N 51°57' E 004°08'0 0.0
2014-Jul-19 14:26N 51°57' E 004°08'0 0.0
2014-Jul-19 13:26N 51°57' E 004°08'0 0.0
2014-Jul-19 12:32N 51°57' E 004°08'0 0.0
2014-Jul-19 11:32N 51°57' E 004°08'0 0.0
2014-Jul-19 09:29N 51°57' E 004°08'0 0.0
2014-Jul-19 07:26N 51°57' E 004°08'0 0.0
2014-Jul-19 06:29N 51°57' E 004°08'0 0.0
2014-Jul-19 05:23N 51°57' E 004°08'0 0.0
2014-Jul-19 04:29N 51°57' E 004°08'0 0.0
2014-Jul-19 03:26N 51°57' E 004°08'0 0.0
2014-Jul-19 02:20N 51°57' E 004°08'0 0.0
2014-Jul-19 01:29N 51°57' E 004°08'0 0.0
2014-Jul-19 00:32N 51°57' E 004°08'0 0.0
2014-Jul-18 23:29N 51°57' E 004°08'0 0.0
2014-Jul-18 22:29N 51°57' E 004°08'0 0.0
2014-Jul-18 21:32N 51°57' E 004°08'0 0.0
2014-Jul-18 20:26N 51°57' E 004°08'0 0.0
2014-Jul-18 19:17N 51°57' E 004°08'0 0.0
2014-Jul-18 18:29N 51°57' E 004°08'0 0.0
2014-Jul-18 17:26N 51°57' E 004°08'0 0.0
2014-Jul-18 16:32N 51°57' E 004°08'0 0.0
2014-Jul-18 15:32N 51°57' E 004°08'0 0.0
2014-Jul-18 14:26N 51°57' E 004°08'0 0.0
2014-Jul-18 13:32N 51°57' E 004°08'0 0.0
2014-Jul-18 12:32N 51°57' E 004°08'0 0.0
2014-Jul-18 11:20N 51°57' E 004°08'0 0.0
2014-Jul-18 10:29N 51°57' E 004°08'0 0.0
2014-Jul-18 09:32N 51°57' E 004°08'0 0.0
2014-Jul-18 08:23N 51°57' E 004°08'0 0.0
2014-Jul-18 07:32N 51°57' E 004°08'0 0.0
2014-Jul-18 06:29N 51°57' E 004°08'0 0.0
2014-Jul-18 05:29N 51°57' E 004°08'0 0.0
2014-Jul-18 04:32N 51°57' E 004°08'0 0.0
2014-Jul-18 03:32N 51°57' E 004°08'0 0.0
2014-Jul-18 02:32N 51°57' E 004°08'0 0.0
2014-Jul-18 01:29N 51°57' E 004°08'0 0.0
2014-Jul-18 00:29N 51°57' E 004°08'0 0.0
2014-Jul-17 23:32N 51°57' E 004°08'0 0.0
2014-Jul-17 22:32N 51°57' E 004°08'0 0.0
2014-Jul-17 21:29N 51°57' E 004°08'0 0.0
2014-Jul-17 20:26N 51°57' E 004°08'0 0.0
2014-Jul-17 19:26N 51°57' E 004°08'0 0.0
2014-Jul-17 18:29N 51°57' E 004°08'0 0.0
2014-Jul-17 17:14N 51°57' E 004°08'0 0.0
2014-Jul-17 16:29N 51°57' E 004°08'0 0.0
2014-Jul-17 15:29N 51°57' E 004°08'0 0.0
2014-Jul-17 14:29N 51°57' E 004°08'0 0.0
2014-Jul-17 13:32N 51°57' E 004°08'0 0.0
2014-Jul-17 12:26N 51°57' E 004°08'0 0.0
2014-Jul-17 11:29N 51°57' E 004°08'0 0.0
2014-Jul-17 10:32N 51°57' E 004°08'0 0.0
2014-Jul-17 09:29N 51°57' E 004°08'0 0.0
2014-Jul-17 08:32N 51°57' E 004°08'0 0.0
2014-Jul-17 07:32N 51°57' E 004°08'0 0.0
2014-Jul-17 06:29N 51°57' E 004°08'0 0.0
2014-Jul-17 05:32N 51°57' E 004°08'0 0.0
2014-Jul-17 04:32N 51°57' E 004°08'0 0.0
2014-Jul-17 03:32N 51°57' E 004°08'0 0.0
2014-Jul-17 02:29N 51°57' E 004°08'0 0.0
2014-Jul-17 01:32N 51°57' E 004°08'0 0.0
2014-Jul-17 00:32N 51°57' E 004°08'0 0.0
2014-Jul-16 23:23N 51°57' E 004°08'0 0.0
2014-Jul-16 22:32N 51°57' E 004°08'0 0.0
2014-Jul-16 21:32N 51°57' E 004°08'0 0.0
2014-Jul-16 20:26N 51°57' E 004°08'0 0.0
2014-Jul-16 19:32N 51°57' E 004°08'0 0.0
2014-Jul-16 18:26N 51°57' E 004°08'0 0.0
2014-Jul-16 17:29N 51°57' E 004°08'0 0.0
2014-Jul-16 16:32N 51°57' E 004°08'0 0.0
2014-Jul-16 15:20N 51°57' E 004°08'0 0.0
2014-Jul-16 14:32N 51°57' E 004°08'  

Dump ship's entire track history